Location: Anciles
(42.5833°N, 0.5167°E)
Time: 21:23:56
(UTC+00:00)

Cosmos 407 Rocket - Pass Details

Date: 10 December 2019
Orbit: 743 x 787 km, 74.0° (Epoch: 26 January)

Event Time Altitude Azimuth Distance (km) Brightness Sun altitude
Rises 17:44:33 0° 180° (S) 3,184 7.0 -14.2°
Reaches altitude 10° 17:46:58 10° 174° (S) 2,270 6.1 -14.6°
Maximum altitude 17:51:51 45° 103° (ESE) 1,034 3.8 -15.5°
Enters shadow 17:55:03 21° 41° (NE) 1,690 4.8 -16.0°
